www.pogodaiklimat.ru

ПОГОДА в Стиглере, OK

  • Прогноз погоды в Стиглере
  • Монитор погоды в Стиглере
  • Климат в Стиглере

АРХИВ ПОГОДЫ в Стиглере

Время (UTC), дата Ветер
(напр.,м/с)
 
Видим.   Явления Облачность Т
(С)
Тd
(С)
f
(%)
Тe
(С)
Тes
(С)
Комфортность

P
(гПа)

Po
(гПа)
Тmin
(С)
Tmax
(С)
R
(мм)
SD
(см)
15:35 18.05 Ю  6
{8} 
16 км    8/8 840 м  +24.0  +18.0  69  +28  +29  душно    1000.3         
15:55 18.05 Ю  16 км    8/8 1050 м  +24.0  +18.0  69  +28  +29  душно    1000.0         
16:15 18.05 Ю  5
{8} 
16 км    10/10 780 м  +24.0  +19.0  74  +29  +29  душно    1000.3         
16:35 18.05 Ю  6
{7} 
16 км    10/10 960 м  +24.0  +19.0  74  +29  +29  душно    1000.3         
16:55 18.05 З  6
{12} 
16 км    10/10 960 м  +24.0  +19.0  74  +29  +29  душно    1001.0         
17:15 18.05 З  9
{13} 
5 км  мгла  10/10 120 м  +18.0  +14.0  77  +17  +17      1003.0         
17:35 18.05 З  4
{9} 
5 км  дымка  10/10 120 м  +17.0  +16.0  94  +16  +16      1002.7         
17:55 18.05 СЗ  16 км  слабый дождь  10/10 120 м  +17.0  +17.0  100  +17  +17      1002.3         
18:15 18.05   16 км  слабый дождь  10/10 420 м  +17.0  +17.0  100  +17  +17      1002.3         
18:35 18.05 ЮВ  16 км  слабый дождь  10/8 270 м
[средняя] 
+17.0  +17.0  100  +17  +19      1002.0         
18:55 18.05 ЮВ  16 км  слабый дождь  8/8 120 м  +17.0  +17.0  100  +16  +19      1001.3         
19:15 18.05 ЮВ  16 км    8/5 90 м
[средняя] 
+17.0  +17.0  100  +16  +20      1001.7         
19:35 18.05 ЮВ  4
{8} 
16 км  дождь  10/8 1140 м
[средняя] 
+17.0  +17.0  100  +16  +17      1001.3         
19:55 18.05 ЮВ  16 км  слабый дождь  10/10 1110 м  +17.0  +17.0  100  +16  +16      999.7         
20:15 18.05 В  8
{10} 
16 км  слабый дождь  8/8 1290 м  +17.0  +17.0  100  +16  +16      997.6         
20:35 18.05 ЮВ  11
{13} 
16 км    5/5 150 м
[средняя] 
+17.0  +17.0  100  +15  +15      996.6         
20:55 18.05 ЮВ  9
{13} 
16 км  слабый дождь  5/5 150 м  +17.0  +17.0  100  +15  +16      997.3         
21:15 18.05 ЮВ  10
{14} 
16 км  слабый дождь  8/8 1050 м  +17.0  +17.0  100  +15  +15      994.9         
21:35 18.05 ЮВ  8
{16} 
16 км    2/0 2700 м
[средняя] 
+17.0  +17.0  100  +16  +16      995.3         
21:55 18.05 ЮЗ  16 км    2/0 2700 м
[средняя] 
+17.0  +17.0  100  +17  +24      996.3         
22:15 18.05 З  16 км    ясно  +17.0  +17.0  100  +17  +23      996.6         
22:35 18.05 З  16 км    ясно  +17.0  +17.0  100  +17  +21      996.6         
22:55 18.05   16 км    ясно  +17.0  +17.0  100  +17  +23      996.3         
23:15 18.05 ЮВ  16 км    5/5 1470 м  +17.0  +17.0  100  +17  +18      996.6         
23:35 18.05   16 км    8/8 810 м  +17.0  +17.0  100  +17  +17      997.3         
23:55 18.05 Ю  16 км    10/10 750 м  +17.0  +17.0  100  +17  +17      997.0         
00:15 19.05 Ю  16 км    8/8 750 м  +18.0  +16.0  88  +18  +18      996.6         
00:35 19.05 Ю  16 км    2/2 810 м  +18.0  +16.0  88  +18  +18      997.0         
00:55 19.05 ЮВ  16 км    5/5 1380 м  +18.0  +16.0  88  +18  +18      997.3         
01:15 19.05 Ю  16 км    8/8 1380 м  +18.0  +16.0  88  +19  +19      997.3         
01:35 19.05 Ю  16 км    10/10 1050 м  +18.0  +16.0  88  +18  +18      997.6         
01:55 19.05 Ю  16 км    10/10 990 м  +18.0  +16.0  88  +18  +18      998.3         
02:15 19.05 Ю  16 км    10/10 810 м  +18.0  +16.0  88  +18  +18      998.3         
02:35 19.05 Ю  16 км    5/5 810 м  +18.0  +15.0  83  +18  +18      998.3         
02:55 19.05 Ю  16 км    2/2 990 м  +18.0  +15.0  83  +19  +19      998.3         
03:15 19.05 Ю  16 км    ясно  +18.0  +16.0  88  +18  +18      998.0         
03:35 19.05 Ю  16 км    ясно  +19.0  +16.0  83  +21  +21  комфорт    998.0         
03:55 19.05 Ю  16 км    ясно  +19.0  +17.0  88  +21  +21  комфорт    997.6         
04:15 19.05 Ю  16 км    ясно  +20.0  +17.0  83  +23  +23  комфорт    997.6         
04:35 19.05 ЮЗ  16 км    2/2 1470 м  +20.0  +17.0  83  +23  +23  комфорт    997.6         
04:55 19.05 Ю  16 км    2/2 1470 м  +20.0  +17.0  83  +23  +23  комфорт    997.3         
05:15 19.05   16 км    ясно  +20.0  +17.0  83  +23  +23  комфорт    997.6         
05:35 19.05 В  16 км    2/2 480 м  +18.0  +17.0  94  +18  +18      998.0         
05:55 19.05 Ю  16 км    8/8 540 м  +19.0  +18.0  94  +21  +21  комфорт    998.3         
06:15 19.05 Ю  16 км    8/8 540 м  +19.0  +18.0  94  +21  +21  комфорт    998.3         
06:35 19.05 Ю  16 км    8/8 540 м  +20.0  +18.0  88  +23  +23  комфорт    998.0         
06:55 19.05 ЮЗ  16 км    8/8 540 м  +19.0  +18.0  94  +21  +21  комфорт    998.0         
07:15 19.05 С  16 км    10/10 420 м  +19.0  +18.0  94  +20  +20      999.3         

 

Местоположение метеостанции Stigler Regional Airport: широта 35.2891 долгота -95.0939 высота над уровнем моря 56 м.

В архиве по умолчанию представлена погода в Стиглере за последние 1-2 суток. Обновление информации о фактической погоде в базе происходит ежечасно! Архивные данные за месяц целиком и за предыдущие месяцы Вы можете получить, выбрав интересующий диапазон дат из раскрывающегося списка и нажав кнопку "Ввод!".

Внимание! Архив погоды МЕТАР в базе сайта хранится не более 60 дней. Нет смысла пытаться выбрать более раннюю дату.

Внимание! Время в таблицах - всемирное. Для получения местного времени необходимо прибавить поправку, которая в Стиглере равна -6 ч.

Ветер - указаны скорость ветра в м/с и направление, откуда дует ветер: С - северный, СВ - северо-восточный, В - восточный, ЮВ - юго-восточный, Ю - южный, ЮЗ - юго-западный, З - западный, СЗ - северо-западный.
Видимость - горизонтальная дальность видимости в метрах или километрах. При видимости от 1 до 10 км при отсутствии осадков обычно наблюдается дымка, при ухудшении видимости до 1 км и менее - туман. В сухую погоду видимость может ухудшаться дымом, пылью или мглою.
Атмосферные явления - указаны явления, наблюдавшиеся в указанный момент времени.
Облачность - указаны через наклонную черту верхняя и нижняя облачность в баллах и высота нижней границы облаков в метрах. Внимание: облачность, как и прочие метеорологические величины в США измеряются автоматическими метеостанциями. Указанные значения в баллах носят условный характер и показывают процент времени, в течение которого, в среднем, лазерный луч высотомера отражался от облаков обратно.
T - Температура воздуха - температура, измеренная на высоте 2 м над землей.
Td - Температура точки росы - температура, при понижении до которой содержащийся в воздухе водяной пар достигнет насыщения.
f - Относительная влажность воздуха - влажноcть воздуха, измеренная на высоте 2 м над землей.
Te - Эффективная температура - температура, которую ощущает одетый по сезону человек в тени. Характеристика душности погоды. При расчете учитывается влияние влажности воздуха и скорости ветра на теплоощущения человека.
Tes - Эффективная температура на солнце - температура, которую ощущает человек, с поправкой на солнечный нагрев. Характеристика знойности погоды. Зависит от высоты солнца над горизонтом, облачности и скорости ветра. Ночью, в пасмурную погоду, а также при ветре 12 м/с и более поправка равна нулю.
P - Атмосферное давление - приведенное к уровню моря атмосферное давление.
Po - Атмосферное давление - измеренное на уровне метеостанции атмосферное давление.
Tmin - Минимальная температура - минимум температуры воздуха на высоте 2 м над землей.
Tmax - Максимальная температура - максимум температуры воздуха на высоте 2 м над землей.
R - Количество осадков - Количество выпавших осадков за 3 или 6 часов, мм.
SD - Снежный покров - Высота снежного покрова, см.